Skip Page Navigation
NASA JPL Caltech
NASA Logo - Jet Propulsion Laboratory + View the NASA Portal
+ Near-Earth Object (NEO) Program
Search JPL
JPL Home Earth Solar System Stars & Galaxies Technology
JPL Solar System Dynamics
BODIES ORBITS EPHEMERIDES TOOLS PHYSICAL DATA DISCOVERY FAQ SITE MAP
JPL Small-Body Database Browser
Search: [ help ]  
(2010 XW58)
Classification: Apollo [NEO]          SPK-ID: 3553665
Ephemeris | Orbit Diagram | Orbital Elements | Physical Parameters | Close-Approach Data ]

[ hide orbit diagram ]
Orbit Diagram
Note: Make sure you have Java enabled on your browser to see the applet. This applet is provided as a 3D orbit visualization tool. The applet was implemented using 2-body methods, and hence should not be used for determining accurate long-term trajectories (over several years or decades) or planetary encounter circumstances. For accurate long-term ephemerides, please instead use our Horizons system.
Orbit Viewer

Additional Notes: the orbits shown in the applet are color coded. The planets are white lines, and the asteroid/comet is a blue line. The bright white line indicates the portion of the orbit that is above the ecliptic plane, and the darker portion is below the ecliptic plane. Likewise for the asteroid/comet orbit, the light blue indicates the portion above the ecliptic plane, and the dark blue the portion below the ecliptic plane.

Orbit Viewer applet originally written and kindly provided by Osamu Ajiki (AstroArts), and further modified by Ron Baalke (JPL).


Orbital Elements at Epoch 2456400.5 (2013-Apr-18.0) TDB
Reference: JPL 16 (heliocentric ecliptic J2000)
 Element Value Uncertainty (1-sigma)   Units 
e .3992459797836695 3.3986e-08  
a 1.605495201689715 2.4998e-08 AU
q .9645076968531243 5.5806e-08 AU
i .03919517245351765 6.6838e-06 deg
node 126.791286077625 0.0081846 deg
peri 290.0718698929767 0.0081844 deg
M 66.36686970858432 1.3761e-05 deg
tp 2456263.518859441828
(2012-Dec-02.01885944)
2.7331e-05 JED
period 743.0395740747646
2.03
1.7354e-05
4.751e-08
d
yr
n .4844964017539352 1.1316e-08 deg/d
Q 2.246482706526305 3.4979e-08 AU
  Orbit Determination Parameters
   # obs. used (total)      77  
   data-arc span      763 days (2.09 yr)  
   first obs. used      2010-12-11  
   last obs. used      2013-01-12  
   planetary ephem.      DE405  
   SB-pert. ephem.      SB405-CPV-2  
   condition code      0  
   fit RMS      .63094  
   data source      ORB  
   producer      Otto Matic  
   solution date      2013-Jan-15 08:50:02  

Additional Information
 Earth MOID = .000457378 AU 
 T_jup = 4.260 
[ show covariance matrix ]

Ephemeris | Orbit Diagram | Orbital Elements | Physical Parameters | Close-Approach Data ]

Physical Parameter Table
Parameter Symbol Value Units Sigma Reference Notes
absolute magnitude H 24.76 mag .38389 16 autocmod 2.5b

[ show close-approach data ]
Ephemeris | Orbit Diagram | Orbital Elements | Physical Parameters | Close-Approach Data ]
ABOUT SSD CREDITS/AWARDS PRIVACY/COPYRIGHT GLOSSARY LINKS
FirstGov 2013-May-18 15:48 UT
(server date/time)  
NASA Home Page
Site Manager:   Donald K. Yeomans
Webmaster  Alan B. Chamberlin